IRS-P6 (RESOURCESAT-1)

Last updated on Mon Oct 14 2024 00:02:24 GMT+0000 (Coordinated Universal Time)

1 28051U 03046A 24287.52970354 .00001167 00000+0 40868-3 0 9990 2 28051 98.2799 340.2243 0064972 16.4091 112.5357 14.35693253 92746
UTC large
Height (km)
Speed (km/s)
/
Latitude / Longitude
Inclination (degrees)
Orbital Period (minutes)
Azimuth
Elevation
Range (km)
Doppler Factor

Next 0 passes for location: London (51.5072 / 0.1276)

Sorry there are no passes over London.